Wind_Speed
12 12 11 12 11 11 11 11 12 11 10 10 10 9 9 9 8 8 9 10 10 11 11 11 11 11 12 12 12 12 12 12 12 11 11 11 11 11 11 11 11 11 12
12 12 12 12 11 11 11 11 11 11 11 11 10 10 9 9 9 9 9 10 10 11 11 12 12 12 12 12 12 12 12 11 12 13 12 12 12 12 12 12 12 12 12
13 12 12 12 11 11 11 11 11 11 11 11 11 11 10 10 10 10 10 11 11 11 12 12 12 12 12 12 12 12 12 12 13 13 13 12 12 12 13 12 13 13 13
13 13 13 12 11 12 12 11 11 11 11 11 11 11 11 12 12 12 12 11 11 12 12 12 12 12 13 13 13 14 14 14 14 14 13 13 12 12 13 13 13 13 13
14 14 13 13 13 13 12 11 11 11 11 11 11 11 12 12 12 12 12 12 12 12 13 13 13 13 13 13 14 15 14 13 13 13 13 13 13 13 13 13 13 13 13
15 15 14 14 14 13 13 13 12 12 12 12 12 12 12 12 12 13 13 13 13 13 13 13 13 13 14 14 14 14 14 15 14 14 14 14 14 14 14 14 14 14 14
16 16 15 15 15 14 14 13 13 13 12 12 13 12 12 13 13 14 14 14 14 14 14 13 13 14 15 15 15 15 15 15 16 15 15 15 15 14 15 14 13 13 14
16 16 16 15 15 15 15 14 13 13 13 13 13 13 13 14 14 14 14 14 14 14 14 15 15 15 15 15 15 15 16 16 16 15 15 15 15 14 14 14 14 14 15
16 16 16 16 15 15 15 14 14 13 13 13 14 14 14 14 14 14 14 15 15 15 15 15 15 15 16 16 16 16 16 16 16 16 15 15 15 14 14 15 15 15 15
17 17 16 16 16 16 15 15 15 15 14 14 15 15 15 16 15 15 15 15 15 15 16 16 15 15 16 16 16 17 17 17 17 16 15 15 15 14 15 15 15 15 15
18 18 18 18 17 16 15 15 16 16 16 17 17 16 17 17 16 16 16 16 16 16 16 16 16 16 16 17 17 17 17 17 17 16 16 15 14 14 15 15 16 16 16
19 18 19 19 18 17 17 17 17 17 18 18 18 18 17 17 17 17 17 17 17 17 17 17 17 17 17 17 18 17 17 17 17 17 16 15 15 15 16 16 17 17 17
20 19 19 19 18 18 19 19 18 18 19 19 19 19 20 19 19 18 18 17 17 17 18 17 17 17 18 19 19 18 18 18 18 18 17 16 17 17 17 17 17 18 18
20 20 20 20 20 20 20 21 21 21 20 20 20 20 20 20 20 19 19 19 18 18 19 18 18 18 19 19 19 19 19 18 19 18 17 17 17 17 18 18 18 19 19
22 22 21 22 22 22 22 22 22 22 22 21 22 21 21 21 22 22 21 20 21 20 20 20 20 20 20 20 19 19 19 19 19 19 18 18 18 18 18 19 19 19 20
23 23 23 23 24 23 23 23 23 23 23 23 22 22 22 22 23 23 23 22 22 21 20 21 21 20 20 20 20 20 20 20 20 19 19 19 19 19 19 19 20 20 20
25 25 24 24 24 24 24 24 24 24 24 24 23 23 23 24 24 24 24 24 23 22 22 22 22 22 21 22 22 22 21 21 21 20 20 20 20 19 19 20 20 21 21
25 25 25 25 25 25 25 25 25 25 25 25 25 25 25 25 25 25 25 25 24 24 24 23 23 23 23 22 22 22 22 22 22 21 20 20 20 20 21 21 21 20 20
25 25 25 25 25 26 26 26 26 26 26 26 26 26 26 26 26 26 26 26 25 25 24 24 24 24 24 23 23 23 23 23 22 21 21 21 21 22 22 22 22 22 22
26 26 27 27 26 27 27 28 28 28 28 28 28 28 28 27 27 27 26 26 26 26 25 24 24 24 24 24 24 24 24 23 22 22 22 23 23 23 23 23 23 23 23
27 28 28 28 29 28 28 29 29 29 29 29 29 29 29 28 27 27 27 27 26 26 26 26 25 25 25 25 25 25 24 24 23 23 23 23 24 24 24 24 24 24 23
30 29 30 29 29 30 29 29 29 30 29 29 28 28 28 28 28 28 28 27 26 26 27 26 26 26 25 25 25 24 24 24 24 24 24 24 24 24 24 24 24 23 23
32 32 31 31 31 30 31 31 30 30 29 29 29 29 29 29 29 29 28 27 27 27 27 27 27 26 26 26 25 25 25 25 25 25 25 25 25 25 24 24 24 23 23
32 32 32 31 31 30 30 30 31 30 30 30 30 30 30 29 29 29 29 29 29 28 28 28 27 27 27 27 26 26 27 27 26 26 26 26 25 25 25 25 24 24 23
33 32 32 32 31 31 31 31 31 31 31 31 31 31 31 31 30 30 30 30 30 29 29 29 29 28 29 28 28 28 27 27 27 26 27 27 26 26 26 25 25 24 24
33 33 33 32 32 32 33 33 32 32 32 31 31 31 31 32 32 32 31 31 30 30 30 30 29 29 29 29 29 29 28 28 27 27 27 27 27 27 26 26 26 25 25
Wind_Direction
286 287 290 288 286 286 287 286 283 280 279 280 280 282 287 289 289 291 288 286 289 294 296 297 298 299 298 299 300 297 295 292 290 288 281 277 277 277 277 274 274 272 274
282 285 287 287 286 284 285 288 286 282 278 278 279 282 284 285 286 288 291 291 292 294 295 295 297 298 297 299 298 295 292 289 287 282 279 278 277 278 277 275 274 273 273
281 281 282 284 286 284 283 284 283 281 280 278 278 280 282 284 284 286 288 290 293 294 295 297 298 298 296 298 299 295 293 292 288 283 283 280 281 285 281 278 276 273 273
279 281 282 285 284 283 281 280 280 280 280 279 279 280 283 285 285 285 286 289 292 295 297 299 300 300 299 296 297 298 299 295 291 289 289 283 283 285 285 281 277 275 273
277 277 280 282 282 281 279 277 276 279 282 282 282 283 284 285 285 285 287 288 289 293 296 296 298 299 299 298 298 299 297 296 290 288 287 286 285 286 285 282 276 274 273
276 276 277 279 280 280 278 275 273 276 280 282 283 282 283 284 285 286 288 289 289 291 293 295 297 298 300 300 301 300 295 295 296 292 289 288 288 287 286 282 277 274 272
275 274 276 276 277 278 274 273 273 276 279 280 279 278 280 282 283 286 288 288 288 290 292 293 296 299 301 302 304 303 301 300 300 297 294 289 288 285 284 283 280 276 273
274 274 274 275 275 275 274 273 273 276 280 280 277 276 277 280 282 285 288 289 288 289 290 292 295 297 299 301 304 304 304 303 302 299 295 292 290 286 285 284 280 275 275
276 274 273 272 271 272 273 272 274 277 281 281 278 276 277 281 284 285 288 290 290 291 291 292 293 295 297 300 303 304 302 300 300 297 294 295 291 283 285 284 280 278 278
277 276 275 274 273 272 272 273 274 275 276 278 278 278 281 285 284 284 286 287 289 291 292 292 291 293 295 297 300 302 301 298 296 293 293 296 293 289 288 288 284 281 280
277 275 274 273 272 270 271 272 273 275 275 276 278 281 283 285 285 286 287 287 288 288 291 291 291 292 293 296 298 299 298 294 292 291 293 294 292 291 292 291 287 284 282
276 275 274 273 274 273 271 271 273 275 275 277 277 279 282 285 286 285 284 284 285 286 289 290 293 294 293 294 297 297 297 294 288 287 287 289 289 287 286 287 286 284 282
275 274 275 274 274 275 273 272 273 275 275 277 279 278 279 282 285 286 285 284 285 287 289 290 291 293 292 294 295 296 293 294 290 286 283 284 284 283 282 284 286 286 284
272 274 276 277 275 275 274 273 273 275 275 277 279 280 282 283 284 286 287 285 285 286 287 287 287 289 291 292 291 293 293 293 292 287 284 282 281 281 282 284 286 288 286
271 274 276 275 275 275 274 275 274 274 275 278 279 281 282 283 283 286 286 284 284 284 285 286 288 289 290 291 291 292 295 296 295 292 289 287 283 283 284 283 284 285 284
272 274 274 273 272 274 275 274 273 276 276 277 278 279 281 283 283 284 285 285 285 283 283 284 285 285 286 288 289 290 292 292 291 291 289 288 287 286 284 284 283 283 284
271 273 274 274 273 274 275 274 273 275 276 277 278 279 280 281 282 283 284 284 284 283 284 284 286 285 284 285 287 289 291 291 290 290 288 286 286 287 287 287 285 284 285
270 272 273 273 273 273 274 273 273 273 276 277 278 279 279 280 281 281 281 282 282 281 283 285 286 286 284 284 286 288 289 288 288 288 286 285 286 286 285 285 285 285 287
269 272 274 273 273 274 275 275 275 274 275 277 277 277 279 279 279 280 279 279 279 280 281 284 285 285 284 285 285 285 284 284 285 285 286 286 286 286 285 285 285 286 287
270 271 273 272 272 274 275 275 275 276 275 276 277 276 277 278 279 278 277 278 278 277 278 280 283 282 280 282 282 282 281 281 282 283 284 285 285 285 284 283 283 285 287
270 271 272 272 271 273 274 275 275 275 275 274 273 274 275 276 279 277 276 276 276 276 276 276 279 281 280 280 280 280 279 278 280 281 282 282 283 284 285 285 285 285 284
271 271 272 272 272 273 274 274 275 275 275 273 273 274 274 274 276 277 275 274 274 276 276 275 278 279 280 280 279 279 279 278 278 280 281 282 283 285 286 286 287 285 283
271 271 272 271 271 272 274 275 274 274 274 274 273 274 274 273 273 274 274 274 275 275 276 276 277 278 279 278 278 278 280 280 279 280 280 282 283 284 284 285 285 284 282
270 271 271 271 271 272 273 275 274 274 274 275 274 273 273 274 273 273 272 272 273 274 276 277 277 277 277 278 277 277 279 280 279 279 279 280 281 282 283 284 283 282 280
269 270 270 271 272 272 273 273 273 274 275 275 276 274 273 274 274 274 274 273 273 273 274 275 275 276 277 275 275 277 279 279 278 278 278 278 279 279 280 281 280 280 279
269 270 270 271 272 273 273 273 272 273 274 274 275 274 273 272 273 273 274 273 273 273 273 273 274 276 277 274 275 276 277 277 277 276 277 278 278 278 277 278 279 278 278
Height
5860 5860 5861 5860 5860 5860 5860 5860 5860 5859 5859 5859 5859 5859 5859 5859 5859 5859 5858 5858 5858 5858 5857 5857 5856 5855 5855 5854 5853 5852 5852 5851 5851 5850 5849 5849 5849 5849 5849 5849 5849 5849 5849
5858 5858 5858 5858 5858 5858 5858 5858 5857 5857 5857 5857 5857 5857 5857 5857 5857 5857 5857 5856 5856 5856 5855 5854 5854 5853 5852 5852 5851 5850 5849 5848 5848 5847 5847 5846 5846 5846 5846 5846 5846 5845 5846
5856 5856 5856 5856 5856 5855 5855 5855 5855 5855 5855 5855 5855 5855 5855 5855 5855 5855 5855 5854 5854 5853 5853 5852 5852 5851 5850 5849 5848 5847 5847 5846 5845 5844 5843 5843 5843 5842 5842 5842 5842 5842 5842
5853 5853 5853 5853 5853 5853 5853 5853 5853 5853 5853 5853 5853 5853 5853 5853 5853 5853 5852 5852 5852 5851 5850 5850 5849 5848 5847 5846 5846 5844 5844 5843 5841 5841 5840 5840 5839 5839 5839 5838 5838 5838 5838
5851 5851 5850 5851 5850 5850 5850 5850 5850 5851 5850 5850 5851 5851 5850 5850 5850 5850 5850 5849 5849 5848 5848 5847 5847 5845 5844 5843 5843 5842 5841 5840 5838 5838 5837 5837 5836 5835 5835 5834 5834 5834 5834
5848 5848 5848 5848 5848 5848 5848 5848 5848 5848 5848 5848 5848 5848 5848 5848 5847 5847 5847 5846 5846 5845 5845 5844 5844 5842 5842 5841 5840 5839 5838 5836 5835 5835 5834 5833 5833 5832 5831 5831 5830 5830 5830
5844 5844 5845 5845 5845 5845 5845 5845 5845 5845 5845 5845 5845 5845 5845 5845 5845 5844 5844 5843 5843 5842 5842 5841 5840 5840 5839 5838 5837 5836 5835 5833 5833 5832 5831 5830 5829 5828 5827 5827 5827 5826 5826
5841 5841 5841 5841 5842 5842 5842 5842 5842 5842 5842 5842 5842 5842 5842 5842 5841 5841 5841 5840 5840 5839 5838 5838 5837 5836 5836 5835 5834 5832 5831 5830 5829 5828 5827 5827 5825 5825 5824 5823 5823 5823 5822
5837 5838 5838 5838 5838 5838 5839 5839 5839 5839 5839 5839 5839 5839 5839 5838 5838 5838 5837 5837 5836 5836 5835 5834 5834 5833 5832 5831 5830 5829 5828 5826 5825 5824 5823 5823 5822 5821 5820 5820 5819 5819 5819
5834 5834 5834 5834 5834 5835 5835 5835 5835 5835 5836 5835 5835 5835 5835 5835 5835 5834 5834 5833 5833 5832 5831 5831 5830 5829 5829 5828 5827 5825 5824 5823 5822 5820 5819 5818 5818 5817 5816 5816 5815 5815 5815
5829 5830 5830 5830 5830 5831 5831 5831 5831 5832 5832 5832 5831 5831 5831 5831 5831 5830 5830 5829 5829 5828 5827 5827 5826 5825 5824 5824 5823 5821 5820 5819 5818 5816 5815 5815 5814 5813 5813 5812 5811 5811 5811
5825 5825 5825 5826 5826 5826 5827 5827 5827 5827 5827 5827 5827 5827 5827 5827 5826 5826 5826 5825 5824 5824 5823 5822 5822 5821 5820 5819 5818 5817 5816 5814 5813 5812 5811 5810 5810 5809 5809 5808 5807 5807 5807
5820 5820 5820 5821 5821 5822 5822 5823 5823 5823 5823 5823 5822 5822 5822 5822 5822 5822 5821 5820 5820 5819 5819 5818 5817 5816 5815 5814 5813 5812 5811 5810 5809 5808 5807 5806 5805 5805 5804 5804 5803 5802 5802
5815 5815 5815 5816 5816 5817 5817 5818 5818 5818 5818 5818 5817 5817 5817 5817 5817 5817 5816 5816 5815 5815 5814 5813 5812 5811 5810 5809 5808 5807 5806 5805 5804 5803 5802 5801 5800 5800 5799 5798 5798 5797 5796
5809 5810 5810 5810 5811 5811 5812 5812 5812 5813 5813 5812 5812 5812 5812 5812 5811 5811 5811 5810 5810 5810 5809 5808 5807 5806 5805 5804 5803 5802 5801 5799 5798 5797 5797 5796 5795 5794 5793 5793 5792 5791 5790
5803 5804 5804 5804 5805 5805 5806 5806 5806 5806 5807 5807 5807 5807 5806 5806 5806 5805 5805 5804 5804 5803 5803 5802 5801 5800 5799 5798 5797 5796 5795 5794 5793 5792 5791 5790 5789 5788 5788 5787 5786 5785 5785
5796 5797 5797 5797 5798 5799 5799 5799 5800 5800 5800 5800 5800 5800 5800 5800 5800 5799 5798 5798 5798 5797 5796 5796 5795 5794 5793 5793 5791 5790 5789 5788 5787 5785 5785 5784 5784 5783 5782 5781 5780 5779 5778
5789 5790 5790 5791 5791 5792 5792 5792 5793 5793 5793 5793 5794 5793 5793 5793 5793 5792 5792 5791 5791 5790 5790 5789 5788 5787 5787 5786 5785 5784 5783 5782 5781 5780 5779 5778 5778 5777 5776 5775 5774 5773 5772
5782 5783 5783 5784 5784 5784 5785 5785 5785 5786 5786 5786 5786 5786 5786 5786 5786 5785 5785 5784 5784 5783 5783 5782 5782 5781 5780 5779 5778 5777 5776 5775 5774 5773 5773 5772 5771 5771 5769 5768 5767 5767 5766
5775 5776 5776 5777 5777 5777 5777 5777 5778 5778 5778 5778 5778 5778 5778 5778 5778 5778 5777 5777 5776 5776 5775 5775 5774 5773 5773 5772 5771 5770 5769 5768 5768 5767 5766 5766 5765 5764 5763 5762 5761 5760 5758
5767 5768 5768 5769 5769 5769 5769 5769 5770 5770 5770 5770 5770 5770 5770 5770 5770 5770 5769 5769 5769 5768 5768 5767 5767 5766 5765 5764 5764 5763 5762 5761 5761 5760 5759 5759 5758 5757 5756 5755 5753 5752 5751
5759 5760 5760 5761 5761 5761 5761 5761 5761 5761 5761 5761 5761 5762 5761 5761 5761 5761 5761 5760 5760 5760 5760 5760 5759 5758 5758 5757 5756 5755 5754 5754 5753 5753 5752 5751 5750 5750 5748 5747 5746 5745 5744
5751 5751 5751 5751 5752 5752 5752 5752 5752 5752 5752 5752 5752 5753 5753 5753 5753 5752 5752 5752 5752 5751 5752 5751 5751 5751 5750 5749 5748 5747 5746 5746 5745 5745 5744 5744 5743 5742 5741 5740 5738 5738 5737
5741 5742 5742 5742 5743 5743 5743 5743 5743 5743 5743 5743 5743 5743 5744 5744 5744 5744 5743 5743 5743 5743 5743 5743 5743 5742 5741 5740 5740 5739 5738 5737 5737 5736 5736 5735 5735 5734 5733 5732 5731 5730 5730
5732 5733 5733 5733 5733 5734 5734 5734 5734 5734 5734 5734 5734 5734 5734 5734 5734 5734 5734 5734 5734 5734 5734 5734 5734 5733 5732 5731 5731 5731 5730 5730 5729 5729 5728 5727 5727 5726 5725 5725 5724 5723 5723
5722 5723 5723 5723 5724 5724 5724 5724 5724 5724 5725 5725 5724 5724 5724 5724 5724 5724 5724 5725 5725 5725 5725 5725 5724 5724 5723 5722 5722 5722 5721 5721 5721 5721 5720 5719 5718 5718 5718 5717 5716 5716 5715